Flag for Canada Weather past 2 weeks in Saint-Jérôme, Quebec, Canada

Now
75 °F

Scattered clouds.


Feels Like: 78 °F
Forecast: 61 / 76 °F
Wind: 10 mph from West

Location: Montreal / Mirabel

Current Time: Jul 31, 2015 at 1:51:59 PM

Latest Report: Jul 31, 2015 at 1:00 PM


Visibility: 45 mi

Pressure: 29.75 "Hg

Humidity: 57%

Dew point: 59 °F

Location of Saint-JérômeLocation

Historic Weather in Saint-Jérôme — Graph

°F

Saint-Jérôme temperature yesterday

Maximum temperature yesterday: 82 °F (at 4:00 PM)
Minimum temperature yesterday: 64 °F (at 5:00 AM)
Average temperature yesterday: 73 °F

Past Weeks' High & Low Weather Summary

 TemperatureHumidityPressure
High88 °F (Jul 29, 4:00 PM)100% (Jul 17, 12:00 AM)30.13 "Hg (Jul 17, 12:00 AM)
Low50 °F (Jul 17, 6:00 AM)44% (Jul 16, 4:00 PM)29.50 "Hg (Jul 21, 2:50 PM)
Average69 °F82%29.84 "Hg
* Reported Jul 16 12:00 Noon — Jul 31 12:00 Noon, Saint-Jérôme, Weather by CustomWeather, © 2015

Note: Actual official high and low records may vary slightly from our data, if they occured in-between our weather recording intervals... More about our weather records

Advertising

Saint-Jérôme weather history for previous 24 hours

 ConditionsComfort  
Time TempWeatherWind HumidityBarometerVisibility
12:00 PM
Fri, Jul 31
75 °FScattered clouds.12 mph57%29.76 "Hg45 mi
11:00 AM73 °FScattered clouds.8 mph61%29.76 "Hg45 mi
10:00 AM72 °FScattered clouds.7 mph65%29.75 "Hg45 mi
9:00 AM68 °FScattered clouds.8 mph78%29.74 "Hg45 mi
8:00 AM66 °FBroken clouds.8 mph78%29.73 "Hg45 mi
7:00 AM64 °FPassing clouds.7 mph78%29.71 "Hg45 mi
6:00 AM63 °FPassing clouds.6 mph83%29.70 "Hg45 mi
5:00 AM63 °FPassing clouds.5 mph83%29.69 "Hg25 mi
4:00 AM64 °FPassing clouds.3 mph78%29.70 "Hg25 mi
3:00 AM64 °FPassing clouds.3 mph78%29.70 "Hg25 mi
2:00 AM66 °FPassing clouds.2 mph73%29.70 "Hg25 mi
1:00 AM68 °FPassing clouds.3 mph73%29.70 "Hg25 mi
12:00 AM70 °FPassing clouds.7 mph73%29.70 "Hg25 mi
11:00 PM
Thu, Jul 30
72 °FMild.7 mph78%29.70 "Hg25 mi
10:00 PM73 °FPartly cloudy.5 mph78%29.69 "Hg25 mi
9:00 PM73 °FPartly sunny.7 mph83%29.69 "Hg25 mi
8:00 PM73 °FScattered clouds.7 mph78%29.68 "Hg35 mi
7:00 PM79 °FPartly sunny.No wind65%29.68 "Hg45 mi
6:00 PM79 °FPartly sunny.5 mph65%29.67 "Hg45 mi
5:00 PM82 °FPassing clouds.6 mph55%29.67 "Hg25 mi
4:00 PM82 °FScattered clouds.10 mph62%29.68 "Hg25 mi
3:00 PM81 °FScattered clouds.7 mph70%29.69 "Hg25 mi
2:00 PM77 °FBroken clouds.8 mph79%29.70 "Hg15 mi
1:47 PM77 °FBroken clouds.7 mph83%29.70 "Hg15 mi
1:00 PM73 °FFog.5 mph94%29.72 "Hg6 mi
Weather by CustomWeather, © 2015

See weather overviewHow to use our weather pages